FW7858 Weather Reports


Display with metric or nautical units.
time (UTC)temp
F
wind
direction
speed
MPH
gust
MPH
rain 1hr
in
rain 24hr
in
rain mn
in
humidity
%
barometer
mb
20260504021547 62 250 12.0 17.0 0.00 0.00 0.00 40 997.8
20260504021046 62 255 12.0 16.0 0.00 0.00 0.00 40 997.9
20260504020545 62 256 11.0 16.0 0.00 0.00 0.00 40 998.0
20260504020045 62 250 10.0 14.0 0.00 0.00 0.00 39 998.1
20260504015544 62 259 10.0 15.0 0.00 0.00 0.00 39 998.2
20260504015047 62 249 11.0 16.0 0.00 0.00 0.00 38 998.3
20260504014542 63 266 11.0 16.0 0.00 0.00 0.00 38 998.4
20260504014042 63 256 10.0 13.0 0.00 0.00 0.00 38 998.5
20260504013540 63 258 10.0 13.0 0.00 0.00 0.00 37 998.6
20260504013043 63 265 8.0 12.0 0.00 0.00 0.00 37 998.7
20260504012544 63 275 9.0 12.0 0.00 0.00 0.00 37 998.9
20260504012039 64 275 9.0 14.0 0.00 0.00 0.00 37 999.0
20260504011538 65 289 9.0 14.0 0.00 0.00 0.00 36 999.0
20260504011036 66 272 10.0 14.0 0.00 0.00 0.00 35 999.1
20260504010535 67 273 9.0 17.0 0.00 0.00 0.00 33 999.2
20260504010046 67 293 13.0 19.0 0.00 0.00 0.00 33 999.3
20260504005533 67 272 11.0 19.0 0.00 0.00 0.00 33 999.5
20260504005033 68 291 13.0 19.0 0.00 0.00 0.00 32 999.5
20260504004532 68 281 14.0 22.0 0.00 0.00 0.00 31 999.6
20260504004033 68 277 15.0 22.0 0.00 0.00 0.00 32 999.7
20260504003531 68 263 14.0 22.0 0.00 0.00 0.00 31 999.7
20260504003030 69 288 16.0 22.0 0.00 0.00 0.00 31 999.7
20260504002531 69 293 13.0 21.0 0.00 0.00 0.00 31 999.8
20260504002029 69 300 14.0 21.0 0.00 0.00 0.00 31 1000.0
20260504001529 69 313 12.0 18.0 0.00 0.00 0.00 32 1000.1
20260504001029 69 279 12.0 17.0 0.00 0.00 0.00 31 1000.1
20260504000530 69 306 12.0 16.0 0.00 0.00 0.00 32 1000.2
20260504000026 69 279 11.0 19.0 0.00 0.00 0.00 32 1000.3
20260503235525 69 298 13.0 30.0 0.00 0.00 0.00 31 1000.4
20260503235025 69 300 18.0 30.0 0.00 0.00 0.00 31 1000.4
20260503234526 70 298 16.0 25.0 0.00 0.00 0.00 30 1000.6
20260503234024 70 298 17.0 25.0 0.00 0.00 0.00 30 1000.6
20260503233523 70 284 14.0 25.0 0.00 0.00 0.00 32 1000.6
20260503233024 70 303 18.0 25.0 0.00 0.00 0.00 31 1000.6
20260503232522 70 308 16.0 21.0 0.00 0.00 0.00 31 1000.7
20260503232025 70 300 16.0 20.0 0.00 0.00 0.00 31 1000.7
20260503231522 70 289 13.0 20.0 0.00 0.00 0.00 32 1000.7
20260503231021 70 294 14.0 20.0 0.00 0.00 0.00 30 1000.8
20260503230519 70 304 14.0 21.0 0.00 0.00 0.00 31 1001.0
20260503230022 69 294 14.0 23.0 0.00 0.00 0.00 31 1001.0
20260503225516 69 296 13.0 22.0 0.00 0.00 0.00 31 1001.2
20260503225015 69 292 15.0 23.0 0.00 0.00 0.00 31 1001.3
20260503224515 69 287 15.0 23.0 0.00 0.00 0.00 32 1001.5
20260503224023 69 284 13.0 20.0 0.00 0.00 0.00 32 1001.6
20260503223516 69 326 13.0 20.0 0.00 0.00 0.00 33 1001.7
20260503223014 69 287 11.0 18.0 0.00 0.00 0.00 33 1001.8
20260503222513 69 306 9.0 20.0 0.00 0.00 0.00 33 1001.9
20260503222013 69 292 7.0 23.0 0.00 0.00 0.00 34 1001.9
20260503221518 69 294 13.0 23.0 0.00 0.00 0.00 33 1002.0
20260503221012 69 300 13.0 20.0 0.00 0.00 0.00 32 1001.9
20260503220511 69 296 2.0 20.0 0.00 0.00 0.00 33 1002.0
20260503220010 68 310 8.0 20.0 0.00 0.00 0.00 33 1002.1
20260503215510 69 293 14.0 20.0 0.00 0.00 0.00 31 1002.2
20260503215011 69 309 8.0 16.0 0.00 0.00 0.00 32 1002.3
20260503214508 69 304 7.0 21.0 0.00 0.00 0.00 32 1002.5
20260503214012 69 299 17.0 21.0 0.00 0.00 0.00 31 1002.5
20260503213505 69 280 12.0 25.0 0.00 0.00 0.00 32 1002.6
20260503213008 69 294 17.0 25.0 0.00 0.00 0.00 30 1002.5
20260503212503 69 285 11.0 19.0 0.00 0.00 0.00 31 1002.6
20260503212002 68 306 13.0 22.0 0.00 0.00 0.00 30 1002.8
20260503211501 68 281 14.0 22.0 0.00 0.00 0.00 30 1003.0
20260503211102 68 296 16.0 20.0 0.00 0.00 0.00 31 1002.9
20260503210600 69 303 8.0 19.0 0.00 0.00 0.00 30 1003.2
20260503210058 68 306 12.0 17.0 0.00 0.00 0.00 32 1003.3
20260503205557 68 325 6.0 20.0 0.00 0.00 0.00 30 1003.4
20260503205101 68 287 14.0 24.0 0.00 0.00 0.00 29 1003.5
20260503204557 68 283 8.0 24.0 0.00 0.00 0.00 31 1003.8
20260503204053 68 304 16.0 24.0 0.00 0.00 0.00 30 1003.8
20260503203552 68 348 13.0 24.0 0.00 0.00 0.00 32 1004.1
20260503203051 67 271 9.0 24.0 0.00 0.00 0.00 32 1004.1
20260503202550 67 315 11.0 24.0 0.00 0.00 0.00 31 1004.4
20260503202050 67 289 10.0 24.0 0.00 0.00 0.00 33 1004.4
20260503201548 67 303 13.0 18.0 0.00 0.00 0.00 31 1004.5
20260503201053 67 34 10.0 19.0 0.00 0.00 0.00 34 1004.6
20260503200549 67 312 12.0 19.0 0.00 0.00 0.00 34 1004.7
20260503200046 66 279 11.0 18.0 0.00 0.00 0.00 33 1004.7
20260503195545 67 300 7.0 18.0 0.00 0.00 0.00 33 1004.8
20260503195047 67 292 9.0 18.0 0.00 0.00 0.00 35 1005.0
20260503194547 66 292 11.0 17.0 0.00 0.00 0.00 34 1005.1
20260503194043 66 300 9.0 16.0 0.00 0.00 0.00 34 1005.1
20260503193543 66 309 8.0 17.0 0.00 0.00 0.00 35 1005.2
20260503193049 65 289 11.0 17.0 0.00 0.00 0.00 34 1005.3
20260503192540 65 299 8.0 15.0 0.00 0.00 0.00 36 1005.4
20260503192043 65 303 6.0 20.0 0.00 0.00 0.00 36 1005.6
20260503191539 65 301 13.0 20.0 0.00 0.00 0.00 35 1005.6
20260503191038 65 300 6.0 18.0 0.00 0.00 0.00 36 1005.7
20260503190537 65 298 9.0 18.0 0.00 0.00 0.00 36 1006.0
20260503190038 65 290 6.0 14.0 0.00 0.00 0.00 36 1006.1
20260503185535 65 340 6.0 12.0 0.00 0.00 0.00 37 1006.1
20260503185036 64 59 2.0 9.0 0.00 0.00 0.00 37 1006.2
20260503184533 64 35 3.0 17.0 0.00 0.00 0.00 38 1006.3
20260503184033 64 292 10.0 15.0 0.00 0.00 0.00 37 1006.3
20260503183532 64 5 4.0 17.0 0.00 0.00 0.00 38 1006.5
20260503183037 64 303 6.0 17.0 0.00 0.00 0.00 37 1006.6
20260503182530 64 49 6.0 14.0 0.00 0.00 0.00 40 1006.8
20260503182028 64 341 2.0 10.0 0.00 0.00 0.00 39 1006.9
20260503181549 63 11 1.0 9.0 0.00 0.00 0.00 38 1007.0
20260503181028 63 74 3.0 10.0 0.00 0.00 0.00 43 1007.2
20260503180528 62 10 3.0 10.0 0.00 0.00 0.00 41 1007.1
20260503180027 62 53 3.0 12.0 0.00 0.00 0.00 40 1007.1
20260503175524 62 313 7.0 12.0 0.00 0.00 0.00 37 1007.2
20260503175022 62 61 2.0 9.0 0.00 0.00 0.00 41 1007.3
20260503174522 62 43 2.0 11.0 0.00 0.00 0.00 41 1007.4
20260503174021 62 46 4.0 13.0 0.00 0.00 0.00 39 1007.4
20260503173522 62 327 5.0 13.0 0.00 0.00 0.00 39 1007.7
20260503173120 61 302 4.0 16.0 0.00 0.00 0.00 39 1007.7
20260503172518 61 346 4.0 16.0 0.00 0.00 0.00 39 1007.8
20260503172019 61 323 5.0 10.0 0.00 0.00 0.00 39 1007.8
20260503171517 61 28 3.0 10.0 0.00 0.00 0.00 40 1007.9
20260503171016 61 61 4.0 10.0 0.00 0.00 0.00 44 1008.1
20260503170517 61 70 2.0 11.0 0.00 0.00 0.00 40 1008.1
20260503150550 57 76 3.0 9.0 0.00 0.00 0.00 40 1008.5
20260503131032 46 360 3.0 6.0 0.00 0.00 0.00 72 1008.4
20260503130533 46 360 2.0 8.0 0.00 0.00 0.00 75 1008.4
20260503110517 42 360 0.0 3.0 0.00 0.00 0.00 82 1007.1
20260503081550 45 360 0.0 2.0 0.00 0.00 0.00 73 1006.2
20260503081046 46 360 0.0 2.0 0.00 0.00 0.00 72 1006.3
20260503080547 46 360 0.0 2.0 0.00 0.00 0.00 72 1006.2
20260503072539 48 360 0.0 3.0 0.00 0.00 0.00 70 1006.0
20260503072037 48 360 1.0 4.0 0.00 0.00 0.00 69 1006.0
20260503071538 48 360 1.0 5.0 0.00 0.00 0.00 69 1005.9
20260503071035 48 360 2.0 6.0 0.00 0.00 0.00 69 1005.8
20260503070535 48 360 3.0 9.0 0.00 0.00 0.00 69 1005.8
20260503055019 50 360 0.0 2.0 0.00 0.00 0.00 68 1005.0
20260503054522 50 360 0.0 1.0 0.00 0.00 0.00 67 1004.9
20260503054019 51 360 0.0 3.0 0.00 0.00 0.00 66 1004.8
20260503053515 51 360 0.0 3.0 0.00 0.00 0.00 65 1004.8
20260503053020 52 360 1.0 5.0 0.00 0.00 0.00 64 1004.8
20260503052517 52 360 1.0 5.0 0.00 0.00 0.00 63 1004.8
20260503052011 53 360 0.0 3.0 0.00 0.00 0.00 62 1004.7
20260503051510 53 360 1.0 3.0 0.00 0.00 0.00 61 1004.5
20260503051017 54 360 1.0 3.0 0.00 0.00 0.00 59 1004.5
20260503050508 54 360 1.0 3.0 0.00 0.00 0.00 58 1004.5
20260503050006 54 360 0.0 2.0 0.00 0.00 0.00 57 1004.4
20260503045507 54 360 0.0 4.0 0.00 0.00 0.00 57 1004.3
20260503045007 54 360 0.0 4.0 0.00 0.00 0.00 57 1004.4
20260503044506 53 360 0.0 4.0 0.00 0.00 0.00 57 1004.4
20260503044005 53 360 0.0 2.0 0.00 0.00 0.00 58 1004.4
20260503043505 52 360 0.0 2.0 0.00 0.00 0.00 59 1004.4
20260503043005 52 360 0.0 3.0 0.00 0.00 0.00 60 1004.4
20260503042505 51 360 0.0 2.0 0.00 0.00 0.00 62 1004.5
20260503042005 51 360 0.0 2.0 0.00 0.00 0.00 62 1004.5
20260503041506 51 360 0.0 2.0 0.00 0.00 0.00 65 1004.4
20260503041006 51 360 0.0 2.0 0.00 0.00 0.00 59 1004.3
20260503040508 52 360 0.0 1.0 0.00 0.00 0.00 57 1004.3
20260503040011 52 360 0.0 2.0 0.00 0.00 0.00 57 1004.3
20260503035604 52 360 0.0 2.0 0.00 0.00 0.00 56 1004.3
20260503035004 52 360 0.0 2.0 0.00 0.00 0.00 56 1004.4
20260503034505 52 360 0.0 2.0 0.00 0.00 0.00 56 1004.4
20260503034005 52 360 0.0 2.0 0.00 0.00 0.00 56 1004.4
20260503033503 53 360 0.0 2.0 0.00 0.00 0.00 55 1004.4
20260503033002 53 360 1.0 3.0 0.00 0.00 0.00 55 1004.3
20260503032502 53 360 1.0 3.0 0.00 0.00 0.00 55 1004.3
20260503032002 53 360 2.0 3.0 0.00 0.00 0.00 55 1004.2
20260503031502 53 360 1.0 3.0 0.00 0.00 0.00 54 1004.2
20260503031002 53 360 0.0 1.0 0.00 0.00 0.00 53 1004.2
20260503030503 53 360 0.0 1.0 0.00 0.00 0.00 53 1004.2
20260503030003 54 360 0.0 1.0 0.00 0.00 0.00 51 1004.2
20260503025502 55 360 0.0 2.0 0.00 0.00 0.00 52 1004.1
20260503025002 55 360 0.0 3.0 0.00 0.00 0.00 49 1004.0
20260503024502 56 360 0.0 3.0 0.00 0.00 0.00 48 1004.0
20260503024002 56 360 0.0 3.0 0.00 0.00 0.00 47 1004.0
20260503023502 57 360 0.0 3.0 0.00 0.00 0.00 47 1004.0
20260503023001 57 360 1.0 6.0 0.00 0.00 0.00 47 1003.9
20260503022501 57 274 3.0 7.0 0.00 0.00 0.00 46 1003.9
20260503022001 57 271 4.0 11.0 0.00 0.00 0.00 46 1003.9